SCP
0 0 0 0 0 0 0 0 0 0 0 0 0 0 0 0 0 0 0 0 -0 -0 -0 0 0 0 0 0 0 0 0 0
0 0 0 0 0 0 0 0 0 0 0 0 0 0 0 0 0 0 0 0 0 -0 0 0 0 0 0 0 0 0 0 0
0 0 0 0 0 0 0 0 0 0 0 0 0 0 0 0 0 0 0 0 0 0 0 0 0 0 0 0 0 0 0 0
0 0 0 0 0 0 0 0 0 0 0 0 0 0 0 0 0 0 0 0 0 0 0 0 0 0 0 0 0 0 0 0
0 0 0 0 0 0 0 0 0 0 0 0 0 0 0 0 0 0 0 0 0 0 0 0 0 0 0 0 0 0 0 0
0 0 0 0 0 0 0 0 0 0 0 0 0 0 0 0 0 0 0 0 0 0 0 0 0 0 0 0 0 0 0 0
0 0 0 0 0 0 0 0 0 0 0 0 0 0 0 0 0 0 0 0 0 0 0 0 0 0 0 0 0 0 0 0
0 0 0 0 0 0 0 0 0 0 0 0 0 0 0 0 0 0 0 0 0 0 0 0 0 0 0 0 0 0 0 0
0 0 0 0 0 0 0 0 0 0 0 0 0 0 0 0 0 0 0 0 0 0 0 0 0 0 0 0 0 0 0 0
-0 0 0 0 0 0 0 0 0 0 0 0 0 0 0 0 0 0 0 0 0 0 0 0 0 0 0 0 0 0 0 0
-0 0 0 0 0 0 0 0 0 0 0 0 0 0 0 0 0 0 0 0 0 0 0 0 0 0 0 0 0 0 0 0
0 0 0 0 0 0 0 0 0 0 0 0 0 0 0 0 0 0 0 0 0 0 0 0 0 0 0 0 0 0 0 0
0 0 0 0 0 0 0 0 0 0 0 0 0 0 0 0 0 0 0 0 0 0 0 0 0 0 0 0 0 0 0 0
0 0 0 0 0 0 0 0 0 0 0 0 0 0 0 0 0 0 0 0 0 0 0 0 0 0 0 0 0 0 0 0
0 0 0 0 0 0 0 0 0 0 0 0 0 0 0 0 0 0 0 0 0 0 0 0 0 0 0 0 0 0 0 -0
0 0 0 0 0 0 0 0 0 0 0 0 0 0 0 0 0 0 0 0 0 0 0 0 0 0 0 0 0 0 0 0
0 0 0 0 0 0 0 0 0 0 0 0 0 0 0 0 0 0 0 0 0 0 0 0 0 0 0 0 0 0 0 0
0 -0 0 0 0 0 0 0 0 0 0 0 0 0 0 0 0 0 0 0 0 0 0 0 0 0 0 0 0 0 0 -0
-0 -0 0 0 0 0 0 0 0 0 0 0 0 0 0 0 0 0 0 0 0 0 0 0 0 0 0 0 0 0 -0 -0
0 0 0 0 0 0 0 0 0 0 0 0 0 0 0 0 0 0 0 0 0 0 0 0 0 0 0 0 0 -0 0 -0
Wind_Speed_500mb
49 42 39 38 42 46 44 38 38 38 36 29 26 21 17 13 12 10 11 10 8 10 10 17 22 23 23 22 25 26 27 29
50 53 51 43 54 52 51 46 45 46 41 34 28 26 22 19 19 18 15 16 13 11 17 20 25 25 27 24 34 35 30 31
47 45 46 47 56 63 59 58 52 48 45 38 35 31 27 21 24 24 22 20 21 20 23 28 26 33 30 36 40 35 34 27
39 38 44 47 49 68 57 60 58 52 46 43 38 32 30 29 27 26 26 26 27 29 28 30 34 35 35 31 33 37 30 30
28 37 19 43 49 54 60 56 56 55 47 47 44 37 34 33 28 27 27 29 35 34 39 38 36 33 31 29 36 42 41 43
30 39 21 30 33 39 58 63 58 56 47 47 51 41 36 30 32 31 31 38 43 52 47 39 38 33 37 34 38 39 39 40
34 33 33 30 30 30 21 44 39 49 53 48 46 47 39 42 38 38 38 38 40 38 43 42 41 40 34 33 29 33 41 35
22 21 30 28 26 30 37 9 38 52 50 46 47 45 46 46 42 38 40 34 41 48 42 46 42 42 33 35 32 35 34 38
21 11 23 23 27 39 40 6 26 45 54 60 55 47 44 39 38 31 44 46 38 46 43 41 45 41 37 37 38 42 43 40
2 9 13 25 26 34 39 34 15 38 49 56 45 37 35 34 45 50 45 42 44 39 41 43 39 45 42 44 47 50 49 43
12 11 9 21 25 23 45 32 42 37 46 50 34 35 25 30 22 32 34 37 36 33 38 42 46 47 49 45 51 51 52 48
24 13 15 19 25 28 39 32 25 23 25 26 20 17 20 15 23 23 27 35 32 31 42 44 43 45 44 52 56 59 44 42
28 22 15 23 27 20 19 15 14 16 10 15 9 8 8 15 22 29 36 43 45 41 42 56 54 48 46 44 37 39 41 44
25 24 21 24 21 14 9 8 12 15 13 8 3 13 17 25 31 36 38 37 39 43 48 51 46 51 54 55 58 58 61 68
27 28 25 20 14 11 8 6 7 11 13 10 17 23 30 26 29 27 36 47 55 59 56 57 67 62 58 52 45 47 50 51
26 25 21 16 11 12 16 17 10 9 14 19 25 23 20 22 30 37 43 39 43 57 65 64 64 55 47 45 46 41 37 40
32 26 19 17 16 17 13 12 13 12 15 19 18 18 25 31 29 24 39 49 54 54 61 63 60 58 53 43 42 43 43 39
33 25 19 20 23 23 22 23 19 20 17 13 15 24 31 15 27 36 40 46 57 60 62 62 60 55 51 48 41 35 40 39
33 29 27 30 28 30 26 23 22 18 13 16 27 31 15 25 34 37 42 58 55 51 56 57 54 47 41 40 30 27 31 31
32 31 30 32 31 31 26 21 19 14 17 28 22 12 23 32 37 37 48 50 44 45 52 50 43 38 35 27 23 20 26 26
Wind_Direction_500mb
189 199 211 214 213 213 210 209 210 210 205 206 205 201 210 237 238 251 252 297 303 279 295 313 316 312 303 312 302 299 302 304
188 198 203 217 244 230 220 214 213 212 212 217 217 213 217 235 237 247 249 278 270 257 262 283 286 280 289 295 300 305 285 282
201 205 210 222 225 242 232 223 215 213 218 221 216 222 227 239 238 248 247 272 275 263 284 297 292 294 285 291 292 291 286 288
205 222 248 236 236 238 245 237 224 218 224 226 220 227 232 239 251 259 254 274 271 264 272 288 280 290 287 294 291 295 285 281
214 277 281 225 236 241 257 254 231 226 231 235 227 231 225 232 252 260 272 269 266 271 267 277 282 275 266 291 292 294 290 290
264 295 243 237 233 233 246 249 241 223 234 243 235 234 225 233 252 269 271 262 264 261 273 283 289 270 276 291 300 285 285 298
280 279 248 249 239 223 223 237 223 223 233 238 233 227 229 254 255 260 271 275 278 282 281 276 278 275 281 288 303 297 299 302
306 280 229 246 252 212 189 202 237 229 232 229 219 228 257 261 258 268 275 277 279 275 270 271 272 271 280 287 297 300 290 300
290 241 236 243 214 199 200 198 237 235 228 224 239 252 256 258 272 270 285 290 291 285 273 269 270 273 275 280 288 297 292 287
207 201 221 191 196 197 196 215 261 228 223 233 247 250 263 273 280 267 288 272 291 278 277 272 272 275 279 285 281 287 287 283
181 189 192 202 209 221 208 242 266 239 237 245 242 259 279 273 287 291 289 305 296 270 266 261 269 276 276 270 275 279 279 275
196 181 157 197 202 201 214 238 261 248 256 264 249 264 293 271 297 298 304 313 313 292 270 280 287 282 278 275 279 279 265 270
180 184 179 192 204 213 212 244 244 258 270 242 219 293 278 276 288 294 294 295 293 294 298 297 298 295 289 281 284 285 278 274
171 178 185 186 181 186 201 218 258 270 248 179 228 279 283 289 286 284 292 298 305 312 311 309 310 307 301 294 286 281 282 287
155 158 161 162 174 201 216 145 137 141 159 256 283 292 300 297 292 301 312 311 314 317 324 318 318 314 302 293 288 284 286 280
139 131 128 129 139 133 126 118 148 208 246 276 285 284 282 299 310 311 316 322 328 330 323 313 311 309 308 295 285 288 288 280
133 130 126 129 139 138 147 194 211 239 274 276 269 284 305 310 316 332 339 339 329 314 310 310 307 302 304 298 287 277 281 279
147 143 145 160 166 175 195 202 225 242 247 266 288 301 317 335 339 340 333 327 321 323 325 324 318 310 306 299 286 274 278 275
161 157 164 174 182 194 205 225 232 224 244 285 308 319 337 348 334 324 330 329 327 331 327 324 324 323 316 313 289 273 284 283
177 174 180 188 196 210 224 219 220 251 301 312 312 314 342 327 320 324 329 328 333 334 330 323 323 328 332 326 305 278 287 281
Wind_Speed_850mb
49 42 39 38 42 46 44 38 38 38 36 29 26 21 17 13 12 10 11 10 8 10 10 17 22 23 23 22 25 26 27 29
50 53 51 43 54 52 51 46 45 46 41 34 28 26 22 19 19 18 15 16 13 11 17 20 25 25 27 24 34 35 30 31
47 45 46 47 56 63 59 58 52 48 45 38 35 31 27 21 24 24 22 20 21 20 23 28 26 33 30 36 40 35 34 27
39 38 44 47 49 68 57 60 58 52 46 43 38 32 30 29 27 26 26 26 27 29 28 30 34 35 35 31 33 37 30 30
28 37 19 43 49 54 60 56 56 55 47 47 44 37 34 33 28 27 27 29 35 34 39 38 36 33 31 29 36 42 41 43
30 39 21 30 33 39 58 63 58 56 47 47 51 41 36 30 32 31 31 38 43 52 47 39 38 33 37 34 38 39 39 40
34 33 33 30 30 30 21 44 39 49 53 48 46 47 39 42 38 38 38 38 40 38 43 42 41 40 34 33 29 33 41 35
22 21 30 28 26 30 37 9 38 52 50 46 47 45 46 46 42 38 40 34 41 48 42 46 42 42 33 35 32 35 34 38
21 11 23 23 27 39 40 6 26 45 54 60 55 47 44 39 38 31 44 46 38 46 43 41 45 41 37 37 38 42 43 40
2 9 13 25 26 34 39 34 15 38 49 56 45 37 35 34 45 50 45 42 44 39 41 43 39 45 42 44 47 50 49 43
12 11 9 21 25 23 45 32 42 37 46 50 34 35 25 30 22 32 34 37 36 33 38 42 46 47 49 45 51 51 52 48
24 13 15 19 25 28 39 32 25 23 25 26 20 17 20 15 23 23 27 35 32 31 42 44 43 45 44 52 56 59 44 42
28 22 15 23 27 20 19 15 14 16 10 15 9 8 8 15 22 29 36 43 45 41 42 56 54 48 46 44 37 39 41 44
25 24 21 24 21 14 9 8 12 15 13 8 3 13 17 25 31 36 38 37 39 43 48 51 46 51 54 55 58 58 61 68
27 28 25 20 14 11 8 6 7 11 13 10 17 23 30 26 29 27 36 47 55 59 56 57 67 62 58 52 45 47 50 51
26 25 21 16 11 12 16 17 10 9 14 19 25 23 20 22 30 37 43 39 43 57 65 64 64 55 47 45 46 41 37 40
32 26 19 17 16 17 13 12 13 12 15 19 18 18 25 31 29 24 39 49 54 54 61 63 60 58 53 43 42 43 43 39
33 25 19 20 23 23 22 23 19 20 17 13 15 24 31 15 27 36 40 46 57 60 62 62 60 55 51 48 41 35 40 39
33 29 27 30 28 30 26 23 22 18 13 16 27 31 15 25 34 37 42 58 55 51 56 57 54 47 41 40 30 27 31 31
32 31 30 32 31 31 26 21 19 14 17 28 22 12 23 32 37 37 48 50 44 45 52 50 43 38 35 27 23 20 26 26
Wind_Direction_850mb
189 199 211 214 213 213 210 209 210 210 205 206 205 201 210 237 238 251 252 297 303 279 295 313 316 312 303 312 302 299 302 304
188 198 203 217 244 230 220 214 213 212 212 217 217 213 217 235 237 247 249 278 270 257 262 283 286 280 289 295 300 305 285 282
201 205 210 222 225 242 232 223 215 213 218 221 216 222 227 239 238 248 247 272 275 263 284 297 292 294 285 291 292 291 286 288
205 222 248 236 236 238 245 237 224 218 224 226 220 227 232 239 251 259 254 274 271 264 272 288 280 290 287 294 291 295 285 281
214 277 281 225 236 241 257 254 231 226 231 235 227 231 225 232 252 260 272 269 266 271 267 277 282 275 266 291 292 294 290 290
264 295 243 237 233 233 246 249 241 223 234 243 235 234 225 233 252 269 271 262 264 261 273 283 289 270 276 291 300 285 285 298
280 279 248 249 239 223 223 237 223 223 233 238 233 227 229 254 255 260 271 275 278 282 281 276 278 275 281 288 303 297 299 302
306 280 229 246 252 212 189 202 237 229 232 229 219 228 257 261 258 268 275 277 279 275 270 271 272 271 280 287 297 300 290 300
290 241 236 243 214 199 200 198 237 235 228 224 239 252 256 258 272 270 285 290 291 285 273 269 270 273 275 280 288 297 292 287
207 201 221 191 196 197 196 215 261 228 223 233 247 250 263 273 280 267 288 272 291 278 277 272 272 275 279 285 281 287 287 283
181 189 192 202 209 221 208 242 266 239 237 245 242 259 279 273 287 291 289 305 296 270 266 261 269 276 276 270 275 279 279 275
196 181 157 197 202 201 214 238 261 248 256 264 249 264 293 271 297 298 304 313 313 292 270 280 287 282 278 275 279 279 265 270
180 184 179 192 204 213 212 244 244 258 270 242 219 293 278 276 288 294 294 295 293 294 298 297 298 295 289 281 284 285 278 274
171 178 185 186 181 186 201 218 258 270 248 179 228 279 283 289 286 284 292 298 305 312 311 309 310 307 301 294 286 281 282 287
155 158 161 162 174 201 216 145 137 141 159 256 283 292 300 297 292 301 312 311 314 317 324 318 318 314 302 293 288 284 286 280
139 131 128 129 139 133 126 118 148 208 246 276 285 284 282 299 310 311 316 322 328 330 323 313 311 309 308 295 285 288 288 280
133 130 126 129 139 138 147 194 211 239 274 276 269 284 305 310 316 332 339 339 329 314 310 310 307 302 304 298 287 277 281 279
147 143 145 160 166 175 195 202 225 242 247 266 288 301 317 335 339 340 333 327 321 323 325 324 318 310 306 299 286 274 278 275
161 157 164 174 182 194 205 225 232 224 244 285 308 319 337 348 334 324 330 329 327 331 327 324 324 323 316 313 289 273 284 283
177 174 180 188 196 210 224 219 220 251 301 312 312 314 342 327 320 324 329 328 333 334 330 323 323 328 332 326 305 278 287 281